DW1174 Weather Reports


Display with metric or nautical units.
time (UTC)temp
F
wind
direction
speed
MPH
gust
MPH
rain 1hr
in
rain 24hr
in
rain mn
in
humidity
%
barometer
mb
20260904183805 71 163 0.0 0.0 0.01 0.23 0.23 100 1013.1
20260904183257 71 163 0.0 0.0 0.01 0.23 0.23 100 1012.9
20260904182758 71 163 0.0 0.0 0.01 0.23 0.23 100 1013.0
20260904182251 71 163 0.0 0.0 0.00 0.22 0.23 100 1012.9
20260904181728 71 163 0.0 0.0 0.00 0.22 0.22 100 1013.3
20260904181223 71 163 0.0 0.0 0.00 0.22 0.22 100 1013.4
20260904180708 71 163 0.0 0.0 0.00 0.22 0.22 100 1013.9
20260904180158 71 163 0.0 0.0 0.00 0.22 0.22 100 1014.4
20260904180121 71 163 0.0 0.0 0.00 0.22 0.22 100 1014.5
20260904175104 71 163 0.0 0.0 0.01 0.22 0.22 100 1014.7
20260904174558 71 163 0.0 0.0 0.01 0.22 0.22 100 1014.8
20260904174032 71 163 0.0 0.0 0.01 0.22 0.22 100 1014.6
20260904173505 71 163 0.0 0.0 0.01 0.22 0.22 100 1014.6
20260904173002 71 163 0.0 0.0 0.02 0.22 0.22 100 1014.7
20260904172458 71 163 0.0 0.0 0.02 0.22 0.22 100 1014.7
20260904171928 71 163 0.0 0.0 0.03 0.22 0.22 100 1014.8
20260904171430 70 163 0.0 0.0 0.03 0.22 0.22 100 1015.0
20260904170928 70 163 0.0 0.0 0.03 0.22 0.22 100 1014.9
20260904170407 70 163 0.0 0.0 0.04 0.22 0.22 100 1014.7
20260904165902 70 163 0.0 0.0 0.04 0.22 0.22 100 1014.8
20260904165400 70 163 0.0 0.0 0.04 0.22 0.22 100 1014.9
20260904164855 70 163 0.0 0.0 0.03 0.21 0.21 100 1015.0
20260904164327 70 163 0.0 0.0 0.03 0.21 0.21 100 1015.2
20260904163757 70 163 0.0 0.0 0.03 0.21 0.21 100 1015.3
20260904163514 70 163 0.0 0.0 0.02 0.20 0.20 100 1015.2
20260904162732 70 163 0.0 0.0 0.02 0.20 0.20 100 1015.2
20260904162452 70 163 0.0 0.0 0.01 0.19 0.20 100 1015.3
20260904161726 70 163 0.0 0.0 0.01 0.19 0.19 100 1015.4
20260904161156 70 163 0.0 0.0 0.01 0.19 0.19 100 1015.2
20260904160631 70 163 0.0 0.0 0.00 0.18 0.18 100 1015.3
20260904155529 70 163 0.0 0.0 0.02 0.18 0.18 100 1015.3
20260904155015 70 163 0.0 0.0 0.02 0.18 0.18 100 1015.2
20260904154457 70 163 0.0 0.0 0.02 0.18 0.18 100 1015.4
20260904153958 70 163 0.0 0.0 0.03 0.18 0.18 100 1015.1
20260904153426 70 163 0.0 0.0 0.03 0.18 0.18 100 1014.9
20260904152911 70 163 0.0 0.0 0.03 0.18 0.18 100 1015.0
20260904152606 69 163 0.0 0.0 0.03 0.18 0.18 100 1014.8
20260904151835 69 163 0.0 0.0 0.04 0.18 0.18 100 1014.5
20260904151328 69 163 0.0 0.0 0.04 0.18 0.18 100 1014.8
20260904150829 69 163 0.0 0.0 0.06 0.18 0.18 100 1014.9
20260904150301 69 163 0.0 0.0 0.08 0.17 0.17 100 1015.0
20260904145758 69 163 0.0 0.0 0.14 0.16 0.16 100 1015.1
20260904145255 69 163 0.0 0.0 0.16 0.16 0.16 100 1015.0
20260904145018 69 163 0.0 0.0 0.16 0.16 0.16 100 1015.0
20260904144227 69 163 0.0 0.0 0.15 0.15 0.15 100 1015.0
20260904143655 69 163 0.0 0.0 0.15 0.15 0.15 100 1014.9
20260904143144 69 163 0.0 0.0 0.15 0.15 0.15 100 1014.9
20260904142648 69 163 0.0 0.0 0.15 0.15 0.15 100 1014.9
20260904142138 69 163 0.0 0.0 0.15 0.15 0.15 100 1014.9
20260904141630 69 163 0.0 0.0 0.14 0.14 0.14 100 1014.7
20260904141125 69 163 0.0 3.0 0.13 0.13 0.14 100 1014.6
20260904140622 69 163 1.0 3.0 0.12 0.12 0.12 100 1015.0
20260904140118 69 163 1.0 3.0 0.05 0.05 0.06 100 1015.1
20260904135619 69 192 1.0 3.0 0.00 0.00 0.00 100 1015.5
20260904135104 69 160 0.0 3.0 0.00 0.00 0.00 100 1015.9
20260904134558 69 172 0.0 0.0 0.00 0.00 0.00 100 1015.2
20260904134052 69 172 0.0 0.0 0.00 0.00 0.00 100 1014.6
20260904133741 69 172 0.0 0.0 0.00 0.00 0.00 100 1014.4
20260904133019 69 172 0.0 0.0 0.00 0.00 0.00 100 1014.3
20260904132520 69 172 0.0 0.0 0.00 0.00 0.00 100 1014.4
20260904131954 69 172 0.0 0.0 0.00 0.00 0.00 100 1014.1
20260904131449 69 172 0.0 0.0 0.00 0.00 0.00 100 1014.1
20260904130925 69 172 0.0 0.0 0.00 0.00 0.00 100 1014.1
20260904130404 69 172 0.0 0.0 0.00 0.00 0.00 100 1014.0
20260904125904 69 172 0.0 0.0 0.00 0.00 0.00 100 1014.0
20260904125352 68 172 0.0 0.0 0.00 0.00 0.00 100 1014.0
20260904124842 68 172 0.0 0.0 0.00 0.00 0.00 100 1014.3
20260904124319 68 172 0.0 0.0 0.00 0.00 0.00 100 1014.3
20260904123812 68 172 0.0 0.0 0.00 0.00 0.00 100 1014.3
20260904123516 68 172 0.0 0.0 0.00 0.00 0.00 100 1014.3
20260904122750 68 0.0 0.0 0.00 0.00 0.00 100 1014.4
20260904122250 0 0.0 0.0 0.00 0.00 0.00
20260904121740 0 0.0 0.0 0.00 0.00 0.00
20260904114301 67 172 0.0 0.0 0.00 0.00 0.00 100 1051.6
20260904113610 67 172 0.0 0.0 0.00 0.00 0.00 100 1013.9
20260904113209 67 172 0.0 0.0 0.00 0.00 0.00 100 1013.9
20260904112648 66 172 0.0 0.0 0.00 0.00 0.00 100 1013.8
20260904112402 66 172 0.0 0.0 0.00 0.00 0.00 100 1013.7
20260904111616 66 172 0.0 0.0 0.00 0.00 0.00 100 1013.8
20260904111050 66 172 0.0 0.0 0.00 0.00 0.00 100 1013.8
20260904110537 66 172 0.0 0.0 0.00 0.00 0.00 100 1013.8
20260904110029 67 172 0.0 0.0 0.00 0.00 0.00 100 1013.8
20260904105515 67 172 0.0 0.0 0.00 0.00 0.00 100 1013.9
20260904104950 67 172 0.0 0.0 0.00 0.00 0.00 100 1013.8
20260904104442 67 172 0.0 0.0 0.00 0.00 0.00 100 1013.6
20260904104435 67 172 0.0 0.0 0.00 0.00 0.00 100 1013.3
20260904103416 67 172 0.0 0.0 0.00 0.00 0.00 100 1013.1
20260904102912 67 172 0.0 0.0 0.00 0.00 0.00 100 1013.1
20260904102403 67 172 0.0 0.0 0.00 0.00 0.00 100 1013.1
20260904101853 67 172 0.0 0.0 0.00 0.00 0.00 100 1013.0
20260904101354 67 172 0.0 0.0 0.00 0.00 0.00 100 1013.1
20260904100841 67 172 0.0 0.0 0.00 0.00 0.00 100 1013.3
20260904100336 67 172 0.0 0.0 0.00 0.00 0.00 100 1013.5
20260904100258 67 172 0.0 0.0 0.00 0.00 0.00 100 1013.3
20260904095530 67 172 0.0 0.0 0.00 0.00 0.00 100 1013.4
20260904094742 67 172 0.0 0.0 0.00 0.00 0.00 100 1013.6
20260904094218 67 172 0.0 0.0 0.00 0.00 0.00 100 1013.8
20260904093710 67 172 0.0 0.0 0.00 0.00 0.00 100 1013.9
20260904093210 67 172 0.0 0.0 0.00 0.00 0.00 100 1013.9
20260904092703 67 172 0.0 0.0 0.00 0.00 0.00 100 1013.8
20260904092157 67 172 0.0 0.0 0.00 0.00 0.00 100 1013.7
20260904091656 67 172 0.0 0.0 0.00 0.00 0.00 100 1013.7
20260904091154 67 172 0.0 0.0 0.00 0.00 0.00 100 1013.5
20260904090647 67 172 0.0 0.0 0.00 0.00 0.00 100 1013.5
20260904090144 67 172 0.0 0.0 0.00 0.00 0.00 100 1013.3
20260904085615 67 172 0.0 0.0 0.00 0.00 0.00 100 1013.4
20260904085109 67 172 0.0 0.0 0.00 0.00 0.00 100 1013.5
20260904084556 67 172 0.0 0.0 0.00 0.00 0.00 100 1013.2
20260904084057 67 172 0.0 0.0 0.00 0.00 0.00 100 1013.2
20260904083543 66 172 0.0 0.0 0.00 0.00 0.00 100 1013.3
20260904083043 66 172 0.0 0.0 0.00 0.00 0.00 100 1013.3
20260904082541 66 172 0.0 0.0 0.00 0.00 0.00 100 1013.4
20260904082041 66 172 0.0 0.0 0.00 0.00 0.00 100 1013.2
20260904081541 66 172 0.0 0.0 0.00 0.00 0.00 100 1013.2
20260904081243 66 172 0.0 0.0 0.00 0.00 0.00 100 1013.5
20260904080503 66 172 0.0 0.0 0.00 0.00 0.00 100 1013.6
20260904080225 66 172 0.0 0.0 0.00 0.00 0.00 100 1013.5
20260903220842 76 330 0.0 0.0 0.00 1.95 1.95 89 1012.8
20260903220341 76 330 0.0 0.0 0.00 1.95 1.95 88 1012.5
20260903215821 76 330 0.0 0.0 0.00 1.95 1.95 88 1012.4
20260903215323 76 330 0.0 0.0 0.00 1.95 1.95 88 1012.1
20260903214818 77 330 0.0 0.0 0.00 1.95 1.95 87 1012.4
20260903214318 77 330 0.0 0.0 0.00 1.95 1.95 87 1012.6
20260903213804 77 330 0.0 0.0 0.00 1.95 1.95 88 1012.6
20260903213308 77 330 0.0 0.0 0.00 1.95 1.95 88 1012.5
20260903212756 77 330 0.0 0.0 0.00 1.95 1.95 88 1012.5
20260903212443 78 330 0.0 3.0 0.00 1.95 1.95 89 1012.2
20260903211721 78 330 0.0 3.0 0.00 1.95 1.95 90 1012.6
20260903211225 78 279 0.0 3.0 0.00 1.95 1.95 92 1012.6
20260903210708 79 249 0.0 0.0 0.00 1.95 1.95 92 1012.5
20260903210209 79 249 0.0 0.0 0.00 1.95 1.95 91 1012.3
20260903205702 79 249 0.0 0.0 0.00 1.95 1.95 91 1012.2
20260903205155 80 249 0.0 0.0 0.00 1.95 1.95 91 1012.0
20260903204646 80 249 0.0 0.0 0.00 1.95 1.95 91 1012.1
20260903204121 80 249 0.0 0.0 0.00 1.95 1.95 91 1012.4
20260903203548 80 249 0.0 0.0 0.00 1.95 1.95 91 1012.5
20260903203037 80 249 0.0 0.0 0.00 1.95 1.95 90 1012.4
20260903202521 80 249 0.0 0.0 0.00 1.95 1.95 90 1012.3
20260903202021 80 249 0.0 0.0 0.00 1.95 1.95 90 1012.1
20260903201523 81 249 0.0 0.0 0.00 1.95 1.95 90 1012.2
20260903201015 80 249 0.0 0.0 0.00 1.95 1.95 90 1012.0
20260903200512 81 249 0.0 1.0 0.00 1.95 1.95 89 1012.2
20260903200009 81 249 0.0 1.0 0.00 1.95 1.95 90 1012.4
20260903195505 80 248 0.0 1.0 0.00 1.95 1.95 91 1012.4
20260903195001 80 248 0.0 0.0 0.00 1.95 1.95 92 1012.5
20260903194724 80 248 0.0 0.0 0.00 1.95 1.95 92 1012.6
20260903194206 80 248 0.0 0.0 0.00 1.95 1.95 93 1012.5
20260903193700 79 248 0.0 0.0 0.00 1.95 1.95 93 1012.2
20260903192944 79 248 0.0 0.0 0.00 1.95 1.95 93 1012.1
20260903192436 78 248 0.0 0.0 0.00 1.95 1.95 92 1012.2
20260903191921 78 248 0.0 0.0 0.00 1.95 1.95 91 1012.2
20260903191415 79 248 0.0 0.0 0.00 1.95 1.95 91 1012.5
20260903191144 79 248 0.0 0.0 0.00 1.95 1.95 90 1012.7
20260903190348 80 246 0.0 0.0 0.00 1.95 1.95 90 1013.0
20260903190111 80 245 0.0 0.0 0.00 1.95 1.95 89 1013.2
20260903185333 80 245 0.0 0.0 0.00 1.95 1.95 89 1013.1
20260903184831 80 246 0.0 0.0 0.00 1.95 1.95 88 1013.2
20260903184326 81 246 0.0 0.0 0.00 1.95 1.95 88 1013.2